Location: Morlupo
(42.1333°N, 12.5000°E)
Time: 15:30:42
(UTC+00:00)

SJ 16-02 - Visible Passes

Search period start: 19 January 2021 00:00
Search period end: 29 January 2021 00:00
Orbit: 606 x 616 km, 75.0° (Epoch: 19 January)

Date Brightness Start Highest point End Pass type
(mag) Time Alt. Az. Time Alt. Az. Time Alt. Az.
19 Jan 1.4 04:31:15 57° SW 04:31:15 57° SW 04:35:02 10° S visible
19 Jan 2.7 16:57:31 10° SE 17:00:45 20° E 17:03:17 13° ENE visible
19 Jan 2.7 18:34:59 10° SW 18:39:04 36° WNW 18:40:20 30° NNW visible
20 Jan 4.3 03:09:58 12° ESE 03:09:58 12° ESE 03:10:22 10° ESE visible
20 Jan 2.6 04:47:01 25° SW 04:47:01 25° SW 04:49:22 10° SSW visible
20 Jan 1.9 17:11:23 10° S 17:15:26 37° ESE 17:18:57 13° NE visible
20 Jan 3.7 18:50:47 10° WSW 18:54:08 21° WNW 18:55:59 16° NNW visible
21 Jan 4.2 03:25:49 11° SE 03:25:49 11° SE 03:26:03 10° SE visible
21 Jan 3.6 05:02:51 11° SW 05:02:51 11° SW 05:03:02 10° SW visible
21 Jan 1.2 17:25:49 10° S 17:30:12 73° ESE 17:34:30 11° NNE visible
21 Jan 4.3 19:07:34 10° W 19:09:19 12° NW 19:11:06 10° NNW visible
22 Jan 1.9 17:40:45 10° SSW 17:45:05 58° WNW 17:49:27 10° N visible
23 Jan 3.1 17:56:08 10° SW 18:00:04 31° WNW 18:04:01 10° N visible
24 Jan 3.9 18:12:06 10° WSW 18:15:10 18° WNW 18:18:15 10° NNW visible
25 Jan 1.3 16:46:45 10° SSW 16:51:10 85° ESE 16:55:35 10° NNE visible
25 Jan 4.4 18:29:29 10° WNW 18:30:23 10° NW 18:31:16 10° NW visible
26 Jan 2.3 17:01:47 10° SW 17:06:04 50° WNW 17:10:22 10° N visible
27 Jan 3.4 17:17:18 10° WSW 17:21:04 27° WNW 17:24:52 10° N visible
28 Jan 4.0 17:33:27 10° W 17:36:12 16° WNW 17:38:57 10° NNW visible
